     2.10           OBSERVATION DATA    G (GPS)             RINEX VERSION / TYPE
teqc 2002Apr3 Duncan Agnew 20050511 23:58:23UTC             PGM / RUN BY / DATE
OSX 5.3|G3|cc|OSX 5.3+|G3+                                  COMMENT
BIT 2 OF LLI FLAGS DATA COLLECTED UNDER A/S CONDITION       COMMENT
IVPN 119                                                    MARKER NAME
6892                                                        MARKER NUMBER
Juan Vargas Nolte Engineering                               OBSERVER / AGENCY
220136892 TRIMBLE 4800 NP 1.20 / SP 1.43                    REC # / TYPE / VERS
N/A TRM4800                                                 ANT # / TYPE
 -2291413.0000 -4830954.0000  3465611.0000                  APPROX POSITION XYZ
        2.0000        0.0000        0.0000                  ANTENNA: DELTA H/E/N
     1     1                                                WAVELENGTH FACT L1/2
     7    C1    L1    L2    P1    P2    S1    S2            # / TYPES OF OBSERV
SNR is mapped to RINEX snr flag value [1-9]                 COMMENT
L1: 3 -> 1; 8 -> 5; 40 -> 9                                 COMMENT
L2: 1 -> 1; 5 -> 5; 60 -> 9                                 COMMENT
  2004     7     7    17     1   20.0000000     GPS         TIME OF FIRST OBS
                                                            END OF HEADER
 04  7  7 17  1 20.0000000  0  8G 3G 9G14G15G18G19G21G22
  22104680.7224      89644.37159     65670.96757                  22104679.7094
        48.0004         36.7504
  23225598.6604      53811.38359     39455.30657                  23225597.2044
        46.0004         29.0004
  21310712.2594    -116440.79759    -85732.95658                  21310709.5054
        51.7504         41.0004
  20227274.1554      15634.96559     11404.59458                  20227272.0464
        52.7504         45.2504
  21602265.9314     253457.51659    186113.50057                  21602262.6204
        51.0004         39.0004
  24026992.9184    -124106.08259    -89851.69957                  24026991.1494
        42.0004         26.0004
  21471816.6884     284226.43459    208206.04857                  21471813.9294
        50.5004         39.0004
  20879079.6454     123106.33659     90215.71358                  20879075.4784
        53.0004         44.0004
 04  7  7 17  1 30.0000000  0  8G 3G 9G14G15G18G19G21G22
  22106465.0154      99020.67249     72977.18447                  22106464.0314
        47.5004         36.2504
  23226663.1604      59407.60949     43815.98347                  23226662.2784
        45.0004         28.7504
  21308321.7934    -129003.44549    -95522.03248                  21308318.8454
        52.0004         41.0004
  20227544.4474      17054.60249     12510.79848                  20227542.3194
        53.0004         44.7504
  21607318.9574     280008.56349    206802.61647                  21607315.7564
        51.0004         38.2504
  24024169.2584    -138947.75049   -101416.62247                  24024166.5994
        42.0004         25.7504
  21477506.4394     314124.68449    231503.36047                  21477503.4814
        50.0004         38.5004
  20881499.9054     135825.16049    100126.48748                  20881496.2584
        52.2504         43.0004
 04  7  7 17  1 40.0000000  0  8G 3G 9G14G15G18G19G21G22
  22108254.6044     108425.12549     80305.33147                  22108253.5274
        46.5004         36.0004
  23227733.3164      65032.88349     48199.32647                  23227732.3234
        44.7504         28.5004
  21305934.1374    -141550.44549   -105298.90148                  21305931.9054
        52.5004         40.5004
  20227816.2924      18482.14849     13623.18948                  20227813.9134
        53.7504         44.7504
  21612367.3694     306540.36349    227476.74447                  21612364.1174
        50.7504         37.7504
  24021347.1664    -153780.76249   -112974.79046                  24021343.9844
        43.0004         25.2504
  21483197.3864     344030.95749    254806.95447                  21483194.9244
        48.5004         39.0004
  20883918.4734     148532.76249    110028.51648                  20883913.7724
        53.0004         43.0004
 04  7  7 17  1 50.0000000  0  8G 3G 9G14G15G18G19G21G22
  22110050.2664     117861.29349     87658.18047                  22110049.5674
        46.5004         35.7504
  23228810.3414      70690.80549     52608.09647                  23228809.4064
        43.5004         29.0004
  21303550.2744    -154078.20749   -115060.79248                  21303547.7364
        52.5004         40.2504
  20228090.0804      19921.15249     14744.48148                  20228088.0214
        54.0004         44.5004
  21617413.3134     333056.43049    248138.60047                  21617410.0264
        51.0004         37.5004
  24018526.1414    -168601.57449   -124523.46647                  24018523.8274
        42.7504         26.5004
  21488890.2514     373948.71549    278119.47947                  21488887.4024
        49.0004         38.7504
  20886335.1054     161232.64149    119924.51948                  20886331.1904
        52.7504         43.0004
 04  7  7 17  2  0.0000000  0  8G 3G 9G14G15G18G19G21G22
  22111852.8974     127331.39549     95037.47147                  22111851.5664
        47.7504         35.5004
  23229892.9704      76383.69149     57044.08947                  23229892.5314
        44.7504         27.7504
  21301170.6294    -166584.32849   -124805.80748                  21301167.5214
        52.0004         40.2504
  20228366.6784      21374.05949     15876.61148                  20228364.1484
        53.7504         44.0004
  21622456.5444     359559.01249    268789.95647                  21622453.5324
        50.5004         37.5004
  24015708.7564    -183407.77749   -136060.74146                  24015706.2034
        43.0004         24.7504
  21494585.9234     403880.31349    301442.78947                  21494583.7704
        49.5004         38.5004
  20888750.6934     173927.10949    129816.31348                  20888746.8414
        53.0004         43.0004
 04  7  7 17  2 10.0000000  0  8G 3G 9G14G15G18G19G21G22
  22113660.7194     136833.37149    102441.61947                  22113659.4784
        48.0004         36.5004
  23230983.5404      82109.63749     61505.87147                  23230982.6664
        43.7504         29.2504
  21298794.2784    -179070.68749   -134535.43748                  21298791.7554
        52.5004         41.0004
  20228645.0314      22838.87149     17018.02848                  20228643.3804
        53.7504         44.5004
  21627496.8674     386046.05549    289429.20147                  21627493.5914
        51.0004         38.5004
  24012893.6174    -198201.22349   -147588.09147                  24012890.5314
        43.2504         26.0004
  21500284.2404     433823.66049    324775.25747                  21500281.9734
        49.7504         38.2504
  20891164.9314     186614.09449    139702.28048                  20891161.3444
        52.2504         43.5004
 04  7  7 17  2 20.0000000  0  8G 3G 9G14G15G18G19G21G22
  22115475.7804     146372.37949    109874.60047                  22115474.5514
        46.2504         36.7504
  23232079.8274      87873.78149     65997.39947                  23232079.4274
        44.7504         29.0004
  21296423.0034    -191532.16049   -144245.67148                  21296419.9824
        52.2504         41.0004
  20228927.1224      24320.77749     18172.74748                  20228924.9894
        53.7504         44.7504
  21632535.3554     412522.74249    310060.37147                  21632532.2114
        51.5004         38.5004
  24010082.2144    -212976.75449   -159101.48647                  24010079.1374
        43.2504         26.2504
  21505985.6174     463783.86749    348120.85047                  21505982.8024
        49.0004         38.2504
  20893578.8904     199298.70749    149586.39248                  20893574.7194
        52.7504         43.2504
 04  7  7 17  2 30.0000000  0  8G 3G 9G14G15G18G19G21G22
  22117297.7194     155946.65649    117335.07347                  22117296.5894
        46.5004         36.0004
  23233183.7434      93674.47749     70517.41747                  23233182.6264
        43.5004         28.2504
  21294056.1414    -203970.44149   -153937.83448                  21294053.2674
        52.2504         41.7504
  20229211.9484      25818.14849     19339.53248                  20229209.8284
        53.7504         45.0004
  21637571.0434     438987.26649    330682.06347                  21637567.8504
        51.0004         39.0004
  24007273.3864    -227736.07049   -170602.26647                  24007270.5994
        43.0004         25.7504
  21511689.7394     493759.16449    371478.21247                  21511686.9184
        48.7504         39.0004
  20895991.8124     211979.10549    159467.22648                  20895987.4414
        52.7504         44.0004
 04  7  7 17  2 40.0000000  0  8G 3G 9G14G15G18G19G21G22
  22119126.7264     165556.51649    124823.26847                  22119125.2704
        47.0004         36.5004
  23234294.5944      99512.14149     75066.26247                  23234293.3814
        43.5004         27.0004
  21291693.3554    -216385.17249   -163611.64348                  21291690.5084
        52.2504         41.5004
  20229500.1544      27331.36349     20518.66148                  20229497.9484
        53.7504         44.5004
  21642604.7134     465439.95349    351294.54647                  21642601.8464
        51.2504         38.5004
  24004468.0704    -242478.74649   -182090.04547                  24004465.3194
        43.5004         26.0004
  21517396.8194     523749.94149    394847.63347                  21517394.0914
        49.5004         39.2504
  20898404.0084     224655.67249    169345.06548                  20898399.7374
        53.0004         43.0004
 04  7  7 17  2 50.0000000  0  8G 3G 9G14G15G18G19G21G22
  22120963.0404     175208.68849    132344.43947                  22120962.0884
        46.7504         35.7504
  23235413.3094     105393.46149     79649.08747                  23235413.0334
        43.2504         28.5004
  21289336.8524    -228769.55149   -173261.80448                  21289334.2114
        52.5004         41.0004
  20229792.4504      28867.21149     21715.42548                  20229790.2704
        54.5004         44.7504
  21647637.8474     491887.52049    371903.03447                  21647634.8234
        50.5004         38.2504
  24001666.9514    -257198.00849   -193559.59747                  24001664.2684
        43.2504         27.2504
  21523108.0984     553762.89549    418234.34047                  21523105.4604
        49.0004         38.7504
  20900816.8324     237335.05149    179225.09948                  20900812.8014
        53.0004         43.0004
 04  7  7 17  3  0.0000000  0  8G 3G 9G14G15G18G19G21G22
  22122807.9234     184901.71549    139897.44447                  22122807.0114
        47.2504         36.0004
  23236541.1464     111317.05549     84264.87247                  23236540.3514
        43.5004         28.0004
  21286985.7284    -241125.03149   -182889.43248                  21286983.0614
        52.0004         41.0004
  20230088.8504      30424.24249     22928.68948                  20230086.6854
        53.5004         44.2504
  21652669.9334     518328.41449    392506.30847                  21652666.5874
        50.7504         38.0004
  23998869.5444    -271895.19949   -205011.93047                  23998867.5484
        43.7504         26.5004
  21528823.0694     583796.48049    441637.12447                  21528820.4024
        49.5004         38.5004
  20903229.9024     250015.70749    189106.13548                  20903225.6924
        52.7504         43.0004
 04  7  7 17  3 10.0000000  0  8G 3G 9G14G15G18G19G21G22
  22124659.9914     194634.18049    147481.19447                  22124659.0504
        47.5004         34.7504
  23237676.2154     117281.63349     88912.59147                  23237675.3214
        42.5004         27.0004
  21284639.7934    -253452.87549   -192495.54048                  21284637.1394
        51.2504         41.0004
  20230388.8254      32001.22349     24157.51648                  20230386.7944
        53.0004         44.0004
  21657699.0254     544761.22749    413103.30147                  21657696.4344
        50.7504         37.5004
  23996076.8004    -286571.55949   -216448.01347                  23996074.6254
        42.5004         26.0004
  21534542.1844     613849.42649    465054.98847                  21534539.5134
        50.2504         38.0004
  20905642.8064     262696.29349    198987.11948                  20905638.7584
        52.2504         43.0004
 04  7  7 17  3 20.0000000  0  8G 3G 9G14G15G18G19G21G22
  22126520.2444     204412.90249    155100.97147                  22126519.5734
        47.2504         36.0004
  23238819.4674     123293.99249     93597.53747                  23238818.9524
        43.0004         27.7504
  21282300.0264    -265746.23049   -202074.76648                  21282297.8424
        52.2504         41.5004
  20230693.6314      33604.96149     25407.17148                  20230691.6104
        53.5004         44.5004
  21662729.1074     571192.71149    433699.24047                  21662726.0434
        50.5004         38.0004
  23993289.7454    -301220.33249   -227862.66147                  23993287.8064
        43.5004         27.5004
  21540266.4574     643928.44949    488493.18147                  21540262.8144
        50.0004         39.0004
  20908057.3434     275383.49649    208873.23648                  20908052.6194
        52.5004         43.0004
 04  7  7 17  3 30.0000000  0  8G 3G 9G14G15G18G19G21G22
  22128389.4564     214234.30149    162754.00847                  22128388.6854
        47.2504         36.2504
  23239972.6704     129350.69149     98317.03947                  23239971.3674
        43.7504         27.0004
  21279967.3784    -278008.55549   -211629.82748                  21279964.3484
        52.2504         41.5004
  20231003.6974      35232.03549     26675.02348                  20231001.4934
        54.0004         44.5004
  21667758.0764     597619.31349    454291.39447                  21667755.0834
        50.2504         38.2504
  23990506.3344    -315844.91049   -239258.39547                  23990504.3874
        42.5004         27.5004
  21545994.2834     674030.02749    511948.93047                  21545991.3654
        49.2504         38.7504
  20910472.2504     288073.89549    218761.86048                  20910467.9304
        53.0004         43.2504
 04  7  7 17  3 40.0000000  0  8G 3G 9G14G15G18G19G21G22
  22130267.0054     224099.93849    170441.51847                  22130265.5914
        47.0004         36.7504
  23241133.8394     135453.33649    103072.36547                  23241133.0834
        43.0004         28.2504
  21277639.7374    -290238.34449   -221159.51848                  21277637.4134
        51.5004         41.5004
  20231317.8524      36884.03149     27962.29648                  20231315.8244
        53.5004         45.0004
  21672786.2214     624042.52749    474880.90947                  21672782.7254
        50.7504         38.7504
  23987728.7394    -330443.63349   -250634.02947                  23987726.2404
        43.2504         28.0004
  21551726.8894     704155.64849    535423.43348                  21551723.5924
        49.5004         39.7504
  20912887.8764     300768.89849    228654.06248                  20912883.6154
        52.7504         44.0004
 04  7  7 17  3 50.0000000  0  8G 3G 9G14G15G18G19G21G22
  22132153.1274     234013.44149    178166.32547                  22132152.2694
        47.0004         36.5004
  23242304.4764     141605.60249    107866.32347                  23242303.5504
        43.5004         28.0004
  21275319.3804    -302431.89849   -230660.98448                  21275316.5244
        51.7504         41.5004
  20231637.8284      38564.63349     29271.84948                  20231635.6894
        54.7504         44.5004
  21677814.4164     650466.02349    495470.63247                  21677811.2264
        50.7504         37.7504
  23984955.7824    -345012.81249   -261986.59947                  23984953.9764
        42.7504         27.5004
  21557465.0184     734308.91849    558919.48347                  21557461.7734
        50.2504         39.2504
  20915305.0214     313472.14149    238552.70848                  20915301.0654
        52.7504         43.2504
 04  7  7 17  4  0.0000000  0  8G 3G 9G14G15G18G19G21G22
  22134048.6264     243972.27349    185926.43947                  22134047.5984
        47.5004         36.5004
  23243484.4874     147805.08649    112697.08447                  23243482.9694
        42.7504         27.7504
  21273005.4114    -314591.60549   -240136.07448                  21273003.0204
        52.0004         41.2504
  20231962.6354      40271.43449     30601.82448                  20231960.2714
        54.0004         44.5004
  21682842.2474     676887.31349    516058.65047                  21682839.1594
        50.2504         38.0004
  23982188.2234    -359554.81649   -273318.03747                  23982187.0154
        43.2504         27.5004
  21563207.6324     764487.42249    582435.18047                  21563204.8434
        50.2504         39.2504
  20917723.7344     326181.07049    248455.76648                  20917719.4984
        53.0004         43.0004
 04  7  7 17  4 10.0000000  0  8G 3G 9G14G15G18G19G21G22
  22135952.3274     253979.35949    193724.16247                  22135951.6074
        46.5004         36.0004
  23244673.9734     154054.80149    117566.97747                  23244672.1604
        43.7504         26.7504
  21270698.4584    -326714.39149   -249582.39648                  21270695.9344
        52.0004         41.5004
  20232292.8054      42007.48449     31954.57948                  20232290.7564
        53.5004         44.0004
  21687870.1934     703309.29349    536647.19147                  21687866.4824
        51.0004         38.2504
  23979427.2084    -374066.54349   -284625.84247                  23979425.3494
        43.5004         27.5004
  21568955.8904     794694.03149    605972.78047                  21568952.9634
        49.5004         38.5004
  20920143.7664     338898.62549    258365.54548                  20920139.5704
        52.7504         43.2504
 04  7  7 17  4 20.0000000  0  8G 3G 9G14G15G18G19G21G22
  22137864.5844     264028.01649    201554.27147                  22137863.5924
        47.2504         35.5004
  23245871.4614     160348.08649    122470.82147                  23245869.3134
        43.5004         26.5004
  21268397.5134    -338806.97349   -259005.19548                  21268395.1804
        51.5004         40.5004
  20232627.4554      43766.16049     33324.96648                  20232624.7424
        54.0004         43.5004
  21692897.4124     729725.27349    557231.04847                  21692893.5584
        51.0004         37.5004
  23976670.2114    -388554.68449   -295915.30447                  23976668.5474
        43.5004         28.0004
  21574708.4244     824922.05549    629527.05647                  21574705.2914
        50.2504         38.0004
  20922564.3034     351618.16449    268276.86448                  20922560.0214
        53.2504         42.5004
 04  7  7 17  4 30.0000000  0  8G 3G 9G14G15G18G19G21G22
  22139784.6664     274116.49649    209415.43447                  22139783.8894
        47.5004         36.7504
  23247077.1854     166683.27349    127407.34147                  23247075.2254
        44.0004         28.7504
  21266101.8834    -350870.98449   -268405.69948                  21266099.5064
        52.0004         41.5004
  20232966.1264      45545.78149     34711.69648                  20232963.7934
        54.0004         44.7504
  21697922.2474     756133.42649    577808.83747                  21697918.9574
        50.0004         38.5004
  23973917.4124    -403020.84049   -307187.63047                  23973915.0594
        43.5004         29.2504
  21580464.0614     855169.82049    653096.74448                  21580460.9194
        50.2504         39.5004
  20924984.6884     364337.89149    278188.34248                  20924980.6084
        52.5004         43.0004
 04  7  7 17  4 40.0000000  0  8G 3G 9G14G15G18G19G21G22
  22141711.7564     284243.67249    217306.72547                  22141710.8924
        47.5004         36.2504
  23248290.4574     173059.23449    132375.61247                  23248288.5874
        44.0004         27.2504
  21263811.4904    -362907.46949   -277784.77748                  21263809.0774
        52.2504         42.0004
  20233308.7714      47345.28149     36113.90948                  20233306.4474
        53.5004         44.5004
  21702946.1534     782532.70349    598379.70147                  21702942.9994
        50.7504         39.0004
  23971168.6084    -417466.08249   -318443.61947                  23971166.4294
        43.5004         29.0004
  21586223.8774     885436.18049    676680.91147                  21586220.8354
        50.5004         39.2504
  20927404.8244     377056.60949    288099.03548                  20927400.6644
        52.0004         43.2504
 04  7  7 17  4 50.0000000  0  8G 3G 9G14G15G18G19G21G22
  22143645.2944     294405.59049    225225.11747                  22143644.5134
        48.7504         36.5004
  23249510.7704     179472.18449    137372.71847                  23249508.9004
        44.5004         28.5004
  21261524.9254    -374920.36349   -287145.45648                  21261522.8484
        51.0004         42.2504
  20233654.2094      49160.80949     37528.59548                  20233651.6264
        53.2504         45.0004
  21707967.0864     808919.09849    618940.52147                  21707963.7184
        51.2504         39.0004
  23968422.7564    -431894.22749   -329686.33147                  23968421.1414
        43.0004         29.7504
  21591985.8074     915717.18849    700276.48948                  21591982.7854
        50.2504         39.5004
  20929824.3304     389770.36749    298005.85748                  20929820.4554
        52.7504         43.5004
 04  7  7 17  5  0.0000000  0  8G 3G 9G14G15G18G19G21G22
  22145586.2154     304602.52749    233170.76847                  22145585.0724
        47.5004         36.2504
  23250737.8604     185922.31649    142398.80147                  23250736.6664
        45.5004         28.0004
  21259243.7794    -386909.30549   -296487.49148                  21259241.3994
        51.5004         42.5004
  20234003.0094      50992.66049     38956.01248                  20234000.4454
        54.0004         44.5004
  21712985.9534     835292.88749    639491.50747                  21712983.0244
        50.7504         39.0004
  23965680.5154    -446305.00449   -340915.49447                  23965678.7124
        43.5004         29.0004
  21597751.1204     946013.10549    723883.68047                  21597747.6724
        50.0004         39.0004
  20932243.1624     402479.37149    307908.97348                  20932238.5384
        52.7504         43.5004
 04  7  7 17  5 10.0000000  0  8G 3G 9G14G15G18G19G21G22
  22147531.5824     314826.85249    241137.75947                  22147530.3264
        48.0004         35.7504
  23251971.1684     192402.07449    147447.95147                  23251969.7534
        44.0004         28.5004
  21256965.1684    -398881.91049   -305816.78448                  21256963.1664
        51.5004         42.0004
  20234352.7824      52833.27349     40390.24848                  20234350.4594
        54.2504         44.5004
  21718000.9964     861646.43449    660026.72947                  21717997.7844
        50.2504         38.2504
  23962940.4384    -460705.87549   -352136.91747                  23962938.4464
        44.0004         28.2504
  21603517.6544     976316.29749    747496.53347                  21603514.3764
        50.7504         39.0004
  20934659.1784     415176.03949    317802.47748                  20934654.3464
        52.0004         43.0004
 04  7  7 17  5 20.0000000  0  8G 3G 9G14G15G18G19G21G22
  22149483.5334     325082.72349    249129.34947                  22149482.4544
        48.2504         35.5004
  23253210.4734     198915.72749    152523.50547                  23253208.9584
        45.5004         28.0004
  21254690.9674    -410833.90249   -315130.02148                  21254689.1584
        52.2504         41.7504
  20234705.6634      54686.93449     41834.65548                  20234703.2994
        53.0004         44.2504
  21723012.4044     887983.85949    680549.39047                  21723009.4694
        50.5004         38.2504
  23960203.0924    -475092.58649   -363347.34847                  23960200.6734
        44.5004         28.5004
  21609286.2914    1006630.88349    771118.27747                  21609283.0234
        50.5004         39.0004
  20937073.6504     427864.46549    327689.55748                  20937069.5224
        51.5004         43.5004
 04  7  7 17  5 30.0000000  0  8G 3G 9G14G15G18G19G21G22
  22151440.8434     335369.73849    257145.21047                  22151439.5914
        48.2504         35.0004
  23254456.2354     205462.96149    157625.27747                  23254455.2714
        44.5004         27.7504
  21252420.3334    -422765.71549   -324427.53348                  21252418.4664
        51.7504         40.7504
  20235060.6814      56553.26649     43288.94248                  20235058.4024
        52.7504         43.5004
  21728021.2974     914304.55549    701059.02047                  21728018.4104
        50.0004         37.0004
  23957467.5954    -489465.56649   -374547.04747                  23957465.3254
        43.0004         28.5004
  21615057.1634    1036956.41449    794748.54447                  21615054.3474
        50.0004         38.2504
  20939486.2734     440544.17249    337569.86148                  20939482.0614
        51.5004         42.7504
 04  7  7 17  5 40.0000000  0  8G 3G 9G14G15G18G19G21G22
  22153403.3154     345684.16049    265182.41547                  22153402.7984
        48.5004         35.7504
  23255708.2254     212040.09449    162750.29947                  23255706.7814
        44.5004         27.7504
  21250152.9934    -434680.89849   -333712.07948                  21250151.0334
        52.0004         42.0004
  20235417.8454      58428.64849     44750.26748                  20235415.1024
        53.0004         44.5004
  21733025.8214     940604.95749    721552.83547                  21733023.1064
        50.7504         37.5004
  23954734.6234    -503828.35249   -385738.81747                  23954732.6204
        44.2504         29.0004
  21620829.0664    1067289.27349    818384.52547                  21620826.0294
        50.7504         39.2504
  20941896.8214     453211.44949    347440.46148                  20941892.7064
        52.0004         43.5004
 04  7  7 17  5 50.0000000  0  8G 3G 9G14G15G18G19G21G22
  22155371.1864     356025.59449    273240.67347                  22155370.1094
        48.0004         35.5004
  23256965.3144     218646.84849    167898.41747                  23256964.1144
        44.5004         28.7504
  21247888.6704    -446579.83249   -342983.97348                  21247886.9354
        51.7504         42.0004
  20235776.3604      60312.80949     46218.44748                  20235773.9904
        53.5004         44.5004
  21738026.9574     966884.75049    742030.57547                  21738024.1354
        50.0004         37.2504
  23952003.1024    -518181.19949   -396922.82947                  23952001.4704
        42.5004         29.0004
  21626602.6774    1097629.20749    842026.01547                  21626599.8934
        50.7504         38.7504
  20944304.9404     465865.96549    357301.11748                  20944300.7634
        52.2504         43.5004
 04  7  7 17  6  0.0000000  0  8G 3G 9G14G15G18G19G21G22
  22157344.5614     366393.46149    281319.52147                  22157343.0784
        48.5004         35.7504
  23258228.3784     225282.65649    173069.18447                  23258226.9374
        43.7504         29.2504
  21245627.5564    -458463.01249   -352243.58748                  21245625.6004
        52.0004         42.2504
  20236136.4164      62205.16449     47693.00548                  20236134.3794
        53.5004         44.7504
  21743023.3544     993143.31349    762491.77747                  21743021.0314
        49.7504         38.0004
  23949273.9954    -532524.49649   -408099.41847                  23949271.4414
        43.5004         30.5004
  21632377.2264    1127975.53949    865672.48747                  21632374.5594
        51.0004         39.2504
  20946710.5954     478507.09049    367151.34048                  20946706.1554
        51.7504         43.2504
 04  7  7 17  6 10.0000000  0  8G 3G 9G14G15G18G19G21G22
  22159322.6254     376790.40249    289421.03847                  22159321.5234
        48.2504         35.7504
  23259496.9714     231950.24249    178264.69947                  23259496.0664
        43.5004         29.5004
  21243369.7734    -470327.71949   -361488.80648                  21243367.9524
        52.0004         42.0004
  20236498.8024      64108.51249     49176.14148                  20236496.4974
        54.0004         44.5004
  21748016.8884    1019383.23449    782938.47747                  21748014.5224
        49.2504         38.0004
  23946546.9454    -546855.60249   -419266.50947                  23946544.6634
        43.5004         29.0004
  21638153.5934    1158330.84049    889325.96347                  21638150.7604
        50.5004         39.0004
  20949113.9314     491137.51249    376993.24248                  20949109.5134
        52.0004         43.0004
 04  7  7 17  6 20.0000000  0  8G 3G 9G14G15G18G19G21G22
  22161306.2504     387213.01649    297542.55947                  22161305.4954
        48.0004         36.0004
  23260771.1974     238646.19949    183482.33347                  23260769.4674
        44.7504         28.7504
  21241114.8044    -482177.25449   -370722.19748                  21241112.8284
        52.2504         41.7504
  20236862.2944      66019.42649     50665.15148                  20236860.1764
        53.2504         44.5004
  21753006.1934    1045601.05549    803367.93247                  21753003.6424
        50.0004         38.0004
  23943821.5134    -561177.84049   -430426.67947                  23943818.8684
        43.0004         29.5004
  21643931.3854    1188691.71149    912983.76747                  21643928.4554
        50.5004         38.5004
  20951514.9814     503753.72749    386824.06248                  20951509.9084
        51.2504         43.0004
 04  7  7 17  6 30.0000000  0  8G 3G 9G14G15G18G19G21G22
  22163294.2554     397659.42249    305682.59847                  22163293.2964
        47.0004         35.2504
  23262050.6084     245368.79349    188720.71247                  23262049.2564
        44.5004         30.2504
  21238862.4394    -494013.50449   -379945.24748                  21238860.9034
        51.7504         41.2504
  20237226.9984      67936.12549     52158.68248                  20237224.9044
        53.5004         44.5004
  21757990.2234    1071794.86749    823778.68147                  21757988.0724
        50.0004         37.5004
  23941097.1874    -575493.04749   -441581.35447                  23941094.6554
        43.2504         29.7504
  21649709.6384    1219056.17649    936644.36147                  21649706.5424
        49.7504         38.5004
  20953912.3714     516353.80549    396642.29048                  20953908.2214
        51.2504         42.5004
 04  7  7 17  6 40.0000000  0  8G 3G 9G14G15G18G19G21G22
  22165287.0334     408131.76249    313842.85947                  22165286.1244
        47.2504         34.7504
  23263335.1734     252120.19149    193981.53447                  23263333.6064
        44.0004         27.7504
  21236612.9174    -505834.07449   -389156.08448                  21236611.2424
        52.2504         41.2504
  20237593.2744      69860.91849     53658.51648                  20237590.8234
        52.0004         44.0004
  21762971.0314    1097967.03949    844172.56947                  21762967.9284
        50.0004         37.2504
  23938375.1764    -589798.73449   -452728.62447                  23938372.5794
        43.5004         28.7504
  21655489.2254    1249426.62149    960309.62547                  21655485.9024
        50.2504         38.0004
  20956307.3044     528940.07049    406449.77448                  20956302.9964
        50.0004         42.0004
 04  7  7 17  6 50.0000000  0  8G 3G 9G14G15G18G19G21G22
  22167285.7344     418634.82449    322027.06547                  22167284.0574
        47.0004         35.0004
  23264626.5274     258905.29349    199268.61447                  23264624.8394
        44.2504         29.0004
  21234367.7134    -517634.21549   -398350.99248                  21234365.4774
        51.2504         41.7504
  20237962.1844      71798.68049     55168.45348                  20237959.4604
        53.2504         44.5004
  21767948.1254    1124122.28149    864553.26647                  21767945.1674
        50.2504         37.7504
  23935655.0894    -604090.19549   -463864.81447                  23935652.6804
        43.7504         28.0004
  21661270.3074    1279807.71549    983983.19347                  21661267.1614
        49.5004         38.2504
  20958701.0484     541517.17649    416250.10748                  20958696.5384
        51.5004         42.5004
 04  7  7 17  7  0.0000000  0  8G 3G 9G14G15G18G19G21G22
  22169289.8374     429167.72349    330234.51947                  22169288.7544
        47.5004         35.0004
  23265923.7314     265723.27749    204581.33247                  23265922.2994
        44.5004         28.7504
  21232125.7754    -529414.71949   -407530.60648                  21232123.8794
        51.2504         42.0004
  20238333.1414      73748.60249     56687.87348                  20238330.9884
        52.5004         44.7504
  21772922.0834    1150259.66449    884920.05547                  21772919.6884
        50.0004         38.0004
  23932938.4064    -618368.17649   -474990.49147                  23932935.8494
        43.5004         29.0004
  21667053.5074    1310198.58249   1007664.37147                  21667050.5184
        49.5004         38.5004
  20961092.1674     554084.27749    426042.65348                  20961087.7594
        49.7504         43.0004
 04  7  7 17  7 10.0000000  0  8G 3G 9G14G15G18G19G21G22
  22171299.5354     439727.80949    338463.15247                  22171298.7604
        46.5004         35.0004
  23267227.0314     272571.53949    209917.62447                  23267225.4144
        45.0004         28.2504
  21229887.1304    -541178.21149   -416696.94848                  21229885.4604
        51.7504         42.0004
  20238706.0304      75708.13749     58214.77548                  20238703.8024
        53.0004         45.0004
  21777891.7274    1176376.39549    905270.73747                  21777889.4494
        50.5004         38.2504
  23930223.4874    -632635.27049   -486107.68947                  23930220.4054
        43.5004         29.2504
  21672837.8634    1340596.64149   1031351.15047                  21672835.2404
        49.7504         38.5004
  20963481.2284     566638.60949    435825.25448                  20963476.6304
        50.5004         43.5004
 04  7  7 17  7 20.0000000  0  8G 3G 9G14G15G18G19G21G22
  22173314.2924     450317.88349    346715.14647                  22173313.7854
        47.2504         35.2504
  23268536.3024     279452.91849    215279.74347                  23268535.1814
        44.5004         28.0004
  21227652.2604    -552921.84049   -425847.82348                  21227650.5214
        51.5004         41.7504
  20239081.1614      77680.03949     59751.32048                  20239078.9154
        52.0004         45.0004
  21782858.3664    1202475.40249    925607.61047                  21782855.6074
        49.7504         38.2504
  23927511.2934    -646888.59049   -497214.16847                  23927508.7814
        42.0004         29.7504
  21678624.7384    1371004.62149   1055045.67147                  21678621.4484
        50.0004         39.0004
  20965868.3804     579183.02349    445600.11448                  20965863.9934
        49.0004         43.0004
 04  7  7 17  7 30.0000000  0  8G 3G 9G14G15G18G19G21G22
  22175336.1474     460940.82849    354992.76847                  22175334.9544
        47.2504         35.0004
  23269852.9314     286370.42249    220669.99247                  23269851.7394
        45.0004         29.7504
  21225422.1874    -564642.67249   -434980.93448                  21225420.0624
        52.2504         41.5004
  20239459.2924      79667.35249     61299.87448                  20239456.9394
        52.0004         44.5004
  21787821.8584    1228559.55149    945932.91147                  21787819.0214
        50.2504         38.0004
  23924801.7424    -661125.16449   -508307.57047                  23924799.3964
        42.2504         29.7504
  21684413.5334    1401425.50049   1078750.23247                  21684410.5204
        50.0004         38.2504
  20968254.1444     591720.36349    455369.47448                  20968249.7414
        49.0004         43.0004
 04  7  7 17  7 40.0000000  0  8G 3G 9G14G15G18G19G21G22
  22177363.3694     471593.87549    363293.84847                  22177362.0434
        46.2504         35.0004
  23271175.4524     293321.32049    226086.29647                  23271174.4034
        44.2504         29.7504
  21223195.5334    -576343.33249   -444098.33248                  21223193.3614
        51.5004         41.7504
  20239840.0164      81667.44949     62858.38248                  20239837.5394
        52.5004         44.5004
  21792782.5734    1254625.95349    966244.39047                  21792779.6394
        50.2504         37.5004
  23922095.8674    -675347.59049   -519389.96747                  23922093.2714
        43.0004         28.7504
  21690204.0844    1431856.46149   1102462.65047                  21690201.3584
        49.5004         38.5004
  20970637.9574     604247.90249    465131.18848                  20970633.7504
        50.2504         42.5004
 04  7  7 17  7 50.0010000  0  8G 3G 9G14G15G18G19G21G22
  22179396.8834     482282.12949    371622.35347                  22179396.1054
        45.0004         34.5004
  23272505.4424     300310.46149    231532.36447                  23272504.3434
        45.2504         28.5004
  21220973.3164    -588020.89849   -453197.73348                  21220970.7524
        51.5004         41.2504
  20240223.9684      83684.64149     64430.22148                  20240221.9664
        51.0004         44.0004
  21797740.4854    1280681.36349    986547.29147                  21797737.5574
        50.5004         37.0004
  23919392.1524    -689553.21949   -530459.25747                  23919389.6004
        42.5004         28.7504
  21695998.3544    1462304.58649   1126188.44047                  21695995.5124
        48.5004         38.0004
  20973021.4444     616770.89149    474889.36448                  20973017.0484
        48.0004         42.5004
 04  7  7 17  8  0.0010000  0  8G 3G 9G14G15G18G19G21G22
  22181438.0434     493006.98049    379979.37047                  22181437.0414
        46.2504         34.5004
  23273843.1524     307339.93049    237009.86247                  23273841.9234
        45.5004         29.2504
  21218756.2454    -599669.42649   -462274.49348                  21218754.2774
        51.5004         41.5004
  20240611.4304      85722.10949     66017.84548                  20240609.3164
        53.0004         44.5004
  21802696.3734    1306723.94149   1006840.20247                  21802693.5734
        49.7504         37.7504
  23916693.5374    -703735.52749   -541510.38347                  23916690.6594
        43.0004         30.0004
  21701794.9694    1492767.23849   1149925.54747                  21701792.3274
        48.5004         37.5004
  20975403.5484     629290.34449    484644.78148                  20975398.7124
        50.5004         42.7504
 04  7  7 17  8 10.0010000  0  8G 3G 9G14G15G18G19G21G22
  22183486.5564     503770.23049    388366.33347                  22183484.9904
        45.5004         35.2504
  23275188.8824     314411.28949    242520.02347                  23275188.0114
        45.2504         28.7504
  21216545.2574    -611289.30549   -471328.93248                  21216543.2864
        51.5004         41.7504
  20241003.3794      87780.85949     67622.07048                  20241001.3464
        50.5004         44.5004
  21807650.4024    1332757.10549   1027125.77247                  21807647.5124
        50.5004         38.0004
  23913999.0274    -717895.09049   -552543.80847                  23913995.9594
        43.0004         30.0004
  21707595.7774    1523248.35549   1173677.05947                  21707592.7664
        48.7504         37.7504
  20977785.4664     641808.29749    494399.03448                  20977781.3454
        48.7504         43.0004
 04  7  7 17  8 20.0010000  0  8G 3G 9G14G15G18G19G21G22
  22185541.7274     514570.93049    396782.44247                  22185540.7714
        46.5004         35.7504
  23276541.9514     321523.64849    248062.12247                  23276541.2404
        45.5004         29.7504
  21214339.4264    -622881.42249   -480361.75848                  21214337.3264
        51.5004         42.0004
  20241399.0884      89860.02349     69242.18948                  20241396.6904
        51.0004         45.0004
  21812602.3384    1358779.94949   1047403.29547                  21812599.6004
        50.0004         38.0004
  23911308.6274    -732032.74649   -563560.15547                  23911305.8274
        44.0004         30.2504
  21713399.6924    1553746.84049   1197442.09747                  21713396.0974
        49.0004         39.0004
  20980167.5334     654323.62549    504151.22948                  20980162.5324
        48.7504         43.2504
 04  7  7 17  8 30.0010000  0  8G 3G 9G14G15G18G19G21G22
  22187604.8054     525413.18049    405230.96047                  22187603.7524
        46.5004         35.2504
  23277904.3444     328681.18849    253639.43147                  23277903.1254
        44.2504         29.0004
  21212139.8184    -634441.54749   -489369.63548                  21212137.5994
        52.0004         41.7504
  20241799.0894      91963.82849     70881.51848                  20241797.1584
        52.2504         44.7504
  21817552.9054    1384796.56349   1067675.97547                  21817550.4044
        50.0004         37.5004
  23908623.4604    -746144.27049   -574556.11947                  23908620.8144
        42.7504         31.0004
  21719207.0954    1584266.94949   1221223.98147                  21719204.2914
        49.0004         38.7504
  20982549.4034     666840.59849    513904.71348                  20982544.3384
        50.7504         43.0004
 04  7  7 17  8 40.0010000  0  8G 3G 9G14G15G18G19G21G22
  22189676.5454     536299.69149    413713.93847                  22189675.2384
        45.2504         35.0004
  23279275.3544     335886.66049    259254.06647                  23279274.4814
        45.0004         29.7504
  21209946.5534    -645966.95349   -498350.46248                  21209943.7734
        51.7504         41.7504
  20242204.8234      94095.02749     72542.18848                  20242202.4894
        50.5004         44.5004
  21822503.3734    1410809.66449   1087945.91347                  21822500.2384
        50.0004         37.7504
  23905943.9404    -760226.91049   -585529.61247                  23905941.1774
        43.0004         30.2504
  21725019.5824    1614811.35249   1245024.79747                  21725016.4844
        47.5004         39.0004
  20984931.8854     679361.84049    523661.52348                  20984927.4064
        48.0004         42.7504
 04  7  7 17  8 50.0010000  0  8G 3G 9G14G15G18G19G21G22
  22191756.6164     547229.65249    422230.79647                  22191754.8744
        46.7504         35.0004
  23280655.4584     343139.23849    264905.46847                  23280654.6014
        45.0004         29.0004
  21207759.6824    -657458.42649   -507304.85548                  21207757.4474
        52.0004         41.5004
  20242615.3814      96252.87549     74223.62148                  20242613.1964
        51.7504         44.2504
  21827452.6294    1436818.39149   1108212.43447                  21827449.8374
        49.5004         37.5004
  23903268.8974    -774281.38349   -596481.12647                  23903266.4014
        44.0004         30.0004
  21730836.3584    1645379.11349   1268843.81547                  21730833.2244
        49.0004         38.5004
  20987315.2494     691886.45349    533420.96348                  20987310.6374
        50.0004         43.0004
 04  7  7 17  9  0.0010000  0  8G 3G 9G14G15G18G19G21G22
  22193845.0404     558204.37149    430782.52347                  22193843.2964
        46.5004         35.0004
  23282044.8474     350440.44949    270594.71447                  23282044.0014
        44.5004         28.7504
  21205579.5474    -668914.47749   -516231.64348                  21205577.1724
        52.0004         41.5004
  20243031.2184      98438.83649     75926.96248                  20243029.2754
        51.0004         44.0004
  21832401.2984    1462824.05549   1128476.58847                  21832398.4154
        49.7504         37.7504
  23900600.1264    -788306.25449   -607409.59447                  23900597.2524
        43.5004         30.0004
  21736658.2324    1675971.71949   1292682.19647                  21736654.8554
        49.2504         38.0004
  20989699.1814     704415.82449    543184.11048                  20989694.8674
        48.7504         42.2504
 04  7  7 17  9 10.0010000  0  8G 3G 9G14G15G18G19G21G22
  22195942.1044     569224.05949    439369.28747                  22195940.2414
        46.7504         35.0004
  23283443.1544     357790.46949    276322.00047                  23283442.5144
        44.2504         29.0004
  21203406.3104    -680334.91049   -525130.67848                  21203404.2114
        52.2504         41.2504
  20243452.6694     100653.16049     77652.40448                  20243450.5904
        52.0004         44.0004
  21837349.4754    1488826.94149   1148738.56747                  21837346.5974
        50.5004         37.7504
  23897937.2754    -802301.16849   -618314.72147                  23897934.4254
        43.7504         30.2504
  21742484.5194    1706589.32449   1316540.04947                  21742481.2624
        49.5004         38.0004
  20992084.6444     716950.14849    552951.11648                  20992080.0754
        50.2504         42.7504
 04  7  7 17  9 20.0010000  0  8G 3G 9G14G15G18G19G21G22
  22198047.6294     580289.54349    447991.74747                  22198046.8254
        46.7504         35.5004
  23284851.4524     365190.22749    282088.05647                  23284851.1684
        44.2504         29.0004
  21201240.5164    -691718.79349   -534001.22048                  21201237.6984
        52.0004         41.7504
  20243879.4504     102896.75449     79400.65748                  20243877.8694
        51.5004         44.2504
  21842297.3464    1514827.93849   1168999.06847                  21842294.5064
        50.7504         38.0004
  23895280.0324    -816265.25449   -629195.80447                  23895277.1064
        43.0004         29.7504
  21748315.9404    1737232.87549   1340418.11847                  21748312.7794
        49.2504         38.0004
  20994471.0104     729490.30149    562722.66148                  20994466.7434
        49.7504         43.5004
 04  7  7 17  9 30.0010000  0  8G 3G 9G14G15G18G19G21G22
  22200162.6364     591403.75449    456652.16947                  22200161.2434
        47.5004         35.5004
  23286269.6674     372642.76649    287895.23447                  23286268.8774
        45.0004         29.2504
  21199081.3944    -703063.09049   -542840.92248                  21199079.1444
        51.2504         41.7504
  20244312.8744     105172.66849     81174.09648                  20244310.5724
        52.0004         44.7504
  21847245.3814    1540829.87149   1189260.31247                  21847242.5134
        51.0004         37.7504
  23892629.2904    -830195.43749   -640050.48247                  23892626.5774
        44.0004         29.5004
  21754152.4524    1767905.29349   1364318.69347                  21754149.1974
        49.5004         38.2504
  20996858.8234     742039.15249    572500.99048                  20996854.0914
        51.0004         43.2504
 04  7  7 17  9 40.0010000  0  8G 3G 9G14G15G18G19G21G22
  22202285.8604     602561.93449    465346.85047                  22202284.5804
        47.5004         35.5004
  23287696.8194     380143.34449    293739.82747                  23287696.2334
        44.5004         29.2504
  21196929.3994    -714372.57849   -551653.51448                  21196926.8204
        51.2504         42.0004
  20244751.3414     107476.17249     82969.02548                  20244749.1844
        51.0004         45.0004
  21852192.3314    1566827.94149   1209518.53747                  21852189.3454
        50.7504         38.2504
  23889983.3184    -844096.39549   -650882.38847                  23889980.7654
        43.7504         30.5004
  21759993.5704    1798601.73449   1388237.98047                  21759990.5224
        49.7504         38.2504
  20999247.7704     754591.91849    582282.37148                  20999243.2504
        49.5004         43.5004
 04  7  7 17  9 50.0010000  0  8G 3G 9G14G15G18G19G21G22
  22204417.8494     613765.73849    474077.08647                  22204416.7314
        46.0004         35.0004
  23289133.5794     387693.66449    299623.22447                  23289132.9544
        45.0004         29.0004
  21194784.0704    -725645.43749   -560437.54848                  21194781.5994
        52.0004         41.2504
  20245195.1994     109809.02049     84786.82748                  20245193.2494
        52.7504         44.5004
  21857139.0954    1592823.86349   1229775.09147                  21857136.5354
        49.7504         38.0004
  23887344.6454    -857966.37949   -661690.15147                  23887341.4964
        43.5004         30.5004
  21765839.6714    1829323.82849   1412177.25847                  21765836.7654
        48.5004         38.5004
  21001637.5524     767150.28149    592068.10548                  21001633.2434
        51.0004         43.2504
 04  7  7 17 10  0.0010000  0  8G 3G 9G14G15G18G19G21G22
  22206558.3694     625013.21549    482841.34647                  22206556.9174
        47.7504         34.7504
  23290579.5754     395291.82449    305543.84947                  23290578.6544
        44.7504         28.5004
  21192645.7454    -736883.58649   -569194.54048                  21192642.8734
        52.2504         41.5004
  20245644.3544     112169.38349     86626.06048                  20245642.0894
        52.7504         44.5004
  21862085.4854    1618815.68449   1250028.44547                  21862082.4484
        50.5004         37.5004
  23884710.2554    -871807.17249   -672475.18447                  23884707.7914
        44.0004         30.2504
  21771690.8684    1860069.67649   1436135.03947                  21771688.0244
        49.5004         37.7504
  21004027.9204     779712.28549    601856.67648                  21004023.6754
        51.2504         43.0004
 04  7  7 17 10 10.0010000  0  8G 3G 9G14G15G18G19G21G22
  22208705.6484     636297.57449    491634.35847                  22208704.3984
        47.0004         35.2504
  23292033.0034     402931.11749    311496.54147                  23292032.4514
        45.0004         27.7504
  21190512.4914    -748093.73449   -577929.71348                  21190509.9544
        51.7504         41.7504
  20246097.5574     114550.58249     88481.53448                  20246095.0304
        52.5004         44.0004
  21867029.5854    1644796.58249   1270273.28847                  21867026.5994
        50.0004         37.5004
  23882080.4904    -885625.60249   -683242.77547                  23882078.2644
        42.5004         29.0004
  21777545.0994    1890832.52749   1460106.06947                  21777541.2414
        49.5004         37.2504
  21006417.8214     792271.18049    611642.82048                  21006413.2614
        51.7504         42.7504
 04  7  7 17 10 20.0010000  0  8G 3G 9G14G15G18G19G21G22
  22210860.8674     647622.76249    500459.17247                  22210859.3924
        46.0004         34.5004
  23293495.5234     410615.51649    317484.39047                  23293495.4104
        44.7504         29.0004
  21188385.2974    -759271.86749   -586639.94748                  21188382.4004
        52.2504         41.7504
  20246555.3724     116956.58649     90356.33648                  20246552.7154
        52.0004         43.7504
  21871972.6934    1670770.54749   1290512.72047                  21871969.3004
        50.0004         36.7504
  23879456.6854    -899417.53949   -693989.72647                  23879453.7544
        42.5004         29.0004
  21783402.5244    1921616.27349   1484093.38747                  21783399.5634
        48.7504         36.5004
  21008807.9704     804830.82049    621429.55548                  21008803.2104
        51.0004         42.0004
 04  7  7 17 10 30.0010000  0  8G 3G 9G14G15G18G19G21G22
  22213022.7304     658984.96549    509312.84247                  22213021.3874
        47.5004         35.2504
  23294965.7924     418341.30949    323504.49047                  23294964.6804
        45.2504         28.5004
  21186263.4824    -770421.74249   -595328.14048                  21186261.3624
        52.0004         42.5004
  20247017.1154     119383.69149     92247.58848                  20247014.9644
        51.5004         44.5004
  21876912.6974    1696733.70749   1310743.76647                  21876909.8394
        51.0004         37.5004
  23876835.8974    -913186.69949   -704718.91247                  23876833.3134
        43.0004         29.5004
  21789263.6814    1952417.11749   1508094.03647                  21789260.8114
        49.2504         37.2504
  21011197.6614     817387.37949    631213.89248                  21011193.0644
        50.5004         43.0004
 04  7  7 17 10 40.0010000  0  8G 3G 9G14G15G18G19G21G22
  22215191.5714     670382.52749    518194.06347                  22215190.2414
        48.0004         35.5004
  23296443.5164     426106.83649    329555.55547                  23296442.3804
        44.7504         29.2504
  21184146.7864    -781544.99249   -603995.61248                  21184144.0254
        52.0004         42.2504
  20247482.7084     121830.30549     94154.03948                  20247480.1144
        52.7504         44.7504
  21881850.9144    1722684.32049   1330965.00647                  21881848.3774
        50.2504         37.7504
  23874220.1194    -926934.58649   -715431.56247                  23874217.7794
        43.5004         30.0004
  21795128.2254    1983233.44949   1532106.74547                  21795124.9374
        49.7504         37.7504
  21013585.8054     829939.15249    640994.49448                  21013581.5264
        52.0004         43.0004
 04  7  7 17 10 50.0010000  0  8G 3G 9G14G15G18G19G21G22
  22217366.8974     681814.32049    527101.93247                  22217365.5044
        47.0004         36.0004
  23297928.3534     433911.21149    335636.86447                  23297927.6724
        45.0004         29.2504
  21182035.1234    -792642.54749   -612643.05748                  21182032.2854
        51.5004         42.5004
  20247951.6794     124295.46149     96074.93448                  20247949.4974
        53.2504         45.2504
  21886786.7414    1748621.46149   1351175.74547                  21886783.7074
        50.7504         38.0004
  23871607.5624    -940662.27749   -726128.45647                  23871605.2534
        43.0004         29.7504
  21800995.2914    2014064.20749   1556130.68447                  21800991.8474
        49.7504         38.2504
  21015973.3054     842485.14549    650770.57748                  21015968.5884
        52.2504         43.5004
 04  7  7 17 11  0.0010000  0  8G 3G 9G14G15G18G19G21G22
  22219549.0044     693280.39149    536036.54047                  22219547.5244
        46.7504         35.7504
  23299421.4554     441754.39149    341748.44847                  23299420.0544
        45.0004         28.7504
  21179927.9324    -803714.37549   -621270.43748                  21179925.2614
        51.2504         42.0004
  20248424.6634     126779.24649     98010.34148                  20248422.4244
        53.5004         44.5004
  21891719.7774    1774545.13749   1371376.00047                  21891716.3114
        50.5004         37.7504
  23868999.3654    -954369.52349   -736809.41647                  23868996.2144
        42.7504         28.7504
  21806864.6174    2044909.37549   1580165.85947                  21806860.9994
        48.7504         37.5004
  21018359.3164     855025.37149    660542.18548                  21018354.4684
        51.7504         43.5004
 04  7  7 17 11 10.0010000  0  8G 3G 9G14G15G18G19G21G22
  22221736.7764     704779.02049    544996.52247                  22221735.3274
        46.7504         35.0004
  23300920.5114     449634.83649    347889.07147                  23300920.0604
        45.2504         29.2504
  21177825.5324    -814762.07849   -629879.02448                  21177823.1794
        51.7504         41.5004
  20248900.0824     129280.01249     99959.00048                  20248898.1714
        53.0004         44.5004
  21896650.0844    1800453.58249   1391564.40447                  21896646.9994
        50.5004         37.7504
  23866394.2174    -968057.91049   -747475.67047                  23866391.7494
        43.0004         28.2504
  21812736.6714    2075767.25049   1604210.95047                  21812733.8804
        49.2504         37.0004
  21020744.3384     867558.06649    670307.93248                  21020739.8344
        52.5004         43.0004
 04  7  7 17 11 20.0010000  0  8G 3G 9G14G15G18G19G21G22
  22223931.2454     716309.48049    553981.28147                  22223930.0844
        46.7504         35.5004
  23302426.8884     457551.89149    354058.18947                  23302426.5374
        45.0004         29.0004
  21175728.0704    -825786.29749   -638469.32248                  21175725.3494
        52.0004         41.2504
  20249379.5954     131797.25049    101920.46448                  20249377.5134
        52.7504         44.5004
  21901577.4694    1826346.16449   1411740.42447                  21901574.2354
        50.2504         37.5004
  23863792.9614    -981728.16849   -758127.80747                  23863790.1914
        43.2504         27.2504
  21818611.3274    2106637.16049   1628265.41247                  21818607.7044
        49.0004         37.0004
  21023127.8184     880082.59449    680067.30148                  21023123.4174
        52.5004         42.7504
 04  7  7 17 11 30.0010000  0  8G 3G 9G14G15G18G19G21G22
  22226131.4194     727872.78149    562991.63847                  22226130.4984
        47.5004         34.0004
  23303941.1364     465506.52749    360256.57947                  23303940.4974
        46.0004         28.0004
  21173634.7214    -836785.98049   -647040.50748                  21173631.8304
        51.5004         40.5004
  20249861.9094     134331.92249    103895.52848                  20249859.4124
        53.5004         44.0004
  21906501.4584    1852223.81649   1431904.81547                  21906498.1984
        50.5004         36.5004
  23861195.5244    -995379.18449   -768764.94747                  23861192.1124
        42.5004         28.2504
  21824487.9684    2137520.10249   1652330.01547                  21824484.7044
        49.5004         36.5004
  21025509.7274     892599.88749    689821.02748                  21025505.2664
        52.5004         42.5004
 04  7  7 17 11 40.0010000  0  8G 3G 9G14G15G18G19G21G22
  22228337.7614     739465.69149    572025.08147                  22228336.3664
        47.5004         35.2504
  23305461.3804     473495.62149    366481.85447                  23305460.6434
        44.7504         28.7504
  21171545.5654    -847764.31249   -655595.03448                  21171542.8404
        52.5004         42.0004
  20250347.0104     136880.92249    105881.76348                  20250344.9004
        53.5004         45.0004
  21911422.8884    1878083.39149   1452055.12147                  21911419.4214
        51.0004         37.2504
  23858600.2774   -1009014.07049   -779389.53147                  23858597.6284
        43.0004         28.5004
  21830366.4094    2168412.91849   1676402.32147                  21830363.7624
        50.0004         37.5004
  21027889.3984     905106.74649    699566.64248                  21027885.4394
        51.5004         43.5004
 04  7  7 17 11 50.0010000  0  8G 3G 9G14G15G18G19G21G22
  22230549.1104     751086.28549    581080.08347                  22230548.4374
        45.2504         35.5004
  23306987.4474     481517.31649    372732.53547                  23306987.0204
        45.7504         28.5004
  21169460.5674    -858723.10249   -664134.34848                  21169457.9264
        51.5004         42.0004
  20250834.4774     139442.41049    107877.72648                  20250832.1844
        53.0004         44.7504
  21916339.5714    1903922.85549   1472189.76547                  21916336.8504
        50.5004         37.5004
  23856008.5704   -1022634.65649   -790002.95947                  23856006.0784
        42.5004         29.2504
  21836246.4784    2199313.52349   1700480.69047                  21836243.7414
        49.7504         37.5004
  21030267.4564     917601.21149    709302.58948                  21030263.2974
        50.5004         43.0004
 04  7  7 17 12  0.0010000  0  8G 3G 9G14G15G18G19G21G22
  22232765.9974     762737.60549    590159.02947                  22232764.9894
        47.0004         35.5004
  23308520.6314     489574.66049    379010.95947                  23308520.4514
        45.2504         28.5004
  21167379.5234    -869659.27349   -672656.03948                  21167376.8214
        51.5004         42.5004
  20251324.6234     142019.44949    109885.80448                  20251322.2574
        53.0004         45.5004
  21921253.4874    1929745.25849   1492311.11547                  21921250.6984
        50.7504         37.2504
  23853420.1814   -1036237.78949   -800602.80247                  23853417.1414
        42.5004         29.5004
  21842129.1384    2230225.05149   1724567.58047                  21842125.7764
        49.7504         37.7504
  21032643.1294     930086.28949    719031.20748                  21032638.4534
        51.5004         43.5004
 04  7  7 17 12 10.0010000  0  8G 3G 9G14G15G18G19G21G22
  22234987.8824     774411.52749    599255.59247                  22234986.4904
        48.2504         35.7504
  23310059.1524     497659.64149    385310.94547                  23310058.7184
        45.0004         29.0004
  21165300.8474    -880580.86349   -681166.35448                  21165298.2194
        51.0004         42.0004
  20251816.5594     144604.10249    111899.82748                  20251814.6274
        53.0004         44.7504
  21926162.4364    1955542.47349   1512412.82547                  21926159.4254
        50.7504         37.2504
  23850833.4984   -1049831.52049   -811195.29947                  23850830.6754
        42.5004         29.5004
  21848011.7384    2261139.48049   1748656.73647                  21848009.3314
        50.0004         37.7504
  21035015.4814     942553.86349    728746.21948                  21035011.1134
        52.0004         43.2504
 04  7  7 17 12 20.0010000  0  8G 3G 9G14G15G18G19G21G22
  22237214.3744     786112.28149    608373.06347                  22237213.2324
        47.7504         35.5004
  23311603.9864     505776.57849    391635.84447                  23311603.0724
        45.0004         28.7504
  21163226.3064    -891483.51649   -689661.91748                  21163223.7674
        51.7504         42.2504
  20252310.6014     147200.63349    113923.09548                  20252308.5234
        52.7504         44.5004
  21931067.3674    1981318.81649   1532498.28147                  21931064.6674
        50.2504         36.7504
  23848249.3424   -1063411.40249   -821777.01047                  23848246.7234
        44.0004         29.2504
  21853895.8804    2292061.00049   1772751.40247                  21853893.5434
        50.0004         36.5004
  21037385.6164     955008.21549    738450.89548                  21037381.1184
        52.5004         43.0004
 04  7  7 17 12 30.0010000  0  8G 3G 9G14G15G18G19G21G22
  22239447.1414     797846.28949    617516.44647                  22239445.9494
        48.5004         35.5004
  23313156.3574     513931.92649    397990.62847                  23313155.0854
        45.5004         29.0004
  21161156.1184    -902360.77349   -698137.70048                  21161153.6424
        51.2504         41.5004
  20252808.2744     149815.56649    115960.70348                  20252806.2104
        53.5004         44.5004
  21935969.9634    2007080.69549   1552572.46347                  21935967.1054
        50.2504         37.7504
  23845668.4364   -1076970.94549   -832342.87947                  23845666.1894
        42.5004         28.5004
  21859782.7124    2322996.00849   1796856.58147                  21859780.2474
        50.0004         37.0004
  21039754.4494     967455.78549    748150.30548                  21039749.8054
        51.5004         43.0004
 04  7  7 17 12 40.0010000  0  8G 3G 9G14G15G18G19G21G22
  22241685.2664     809607.35249    626680.89547                  22241684.1054
        48.2504         34.7504
  23314714.4164     522119.49249    404370.53747                  23314713.3984
        45.7504         28.5004
  21159090.0174    -913218.83649   -706598.53348                  21159087.9524
        52.5004         41.2504
  20253308.1594     152442.75049    118007.84748                  20253305.7744
        52.0004         44.0004
  21940868.4804    2032821.94549   1572630.55447                  21940865.3344
        50.5004         36.0004
  23843091.0504   -1090516.32849   -842897.74247                  23843088.5974
        43.5004         28.2504
  21865670.9994    2353938.31349   1820967.43847                  21865668.1324
        50.0004         36.2504
  21042120.7554     979890.30149    757839.52448                  21042115.5324
        51.0004         42.5004
 04  7  7 17 12 50.0010000  0  8G 3G 9G14G15G18G19G21G22
  22243928.5554     821394.22349    635865.45447                  22243926.6124
        48.5004         35.5004
  23316278.1704     530338.14849    410774.63747                  23316277.5394
        45.0004         29.2504
  21157027.1334    -924058.82449   -715045.27148                  21157024.4484
        51.7504         42.0004
  20253810.0804     155081.07449    120063.68448                  20253807.8284
        50.0004         44.7504
  21945762.9484    2058541.35949   1592671.65047                  21945759.4734
        50.5004         37.5004
  23840516.4754   -1104048.65649   -853442.39147                  23840513.8284
        43.5004         30.0004
  21871559.9624    2384886.75449   1845083.08747                  21871556.9124
        49.7504         38.0004
  21044483.9104     992310.59049    767517.67248                  21044479.3894
        49.0004         43.2504
 04  7  7 17 13  0.0010000  0  8G 3G 9G14G15G18G19G21G22
  22246176.2414     833207.21149    645070.38447                  22246175.0094
        47.5004         35.5004
  23317847.9954     538588.29349    417203.33647                  23317847.2314
        45.5004         28.5004
  21154967.8484    -934880.31249   -723477.59948                  21154965.3914
        52.0004         42.0004
  20254314.4934     157730.96549    122128.52848                  20254312.3694
        51.0004         44.5004
  21950652.7974    2084239.12149   1612695.87147                  21950649.2924
        50.7504         37.0004
  23837943.6354   -1117567.49249   -863976.54747                  23837940.6224
        43.2504         29.0004
  21877450.6954    2415841.62149   1869203.75047                  21877447.3494
        50.2504         37.2504
  21046845.0074    1004716.90649    777184.93148                  21046840.6924
        50.0004         43.2504
 04  7  7 17 13 10.0010000  0  8G 3G 9G14G15G18G19G21G22
  22248429.2494     845047.64549    654296.69447                  22248428.3004
        48.0004         36.0004
  23319424.5474     546871.27349    423657.60447                  23319423.3934
        45.2504         29.5004
  21152912.2054    -945681.99649   -731894.49248                  21152909.9504
        51.5004         43.2504
  20254821.1334     160393.77349    124203.43848                  20254818.9684
        51.2504         45.2504
  21955539.1784    2109916.58649   1632704.28347                  21955536.2764
        50.2504         37.7504
  23835374.1304   -1131071.43449   -874499.06847                  23835371.4164
        44.0004         29.7504
  21883342.5964    2446804.10949   1893330.35547                  21883340.2654
        49.5004         37.7504
  21049203.2034    1017110.57849    786842.33548                  21049199.1494
        49.2504         43.7504
 04  7  7 17 13 20.0010000  0  8G 3G 9G14G15G18G19G21G22
  22250687.7014     856914.43849    663543.54247                  22250686.6474
        48.0004         35.7504
  23321007.1624     555186.15249    430136.70847                  23321005.6224
        45.0004         30.0004
  21150860.2924    -956464.77749   -740296.64748                  21150858.1584
        51.5004         42.5004
  20255330.0704     163068.62149    126287.73548                  20255328.0794
        52.5004         44.7504
  21960420.8474    2135572.85549   1652696.16147                  21960418.1004
        50.5004         38.0004
  23832806.5674   -1144561.39549   -885010.72147                  23832804.1824
        43.2504         29.0004
  21889235.7634    2477773.26249   1917462.12847                  21889233.1034
        48.5004         36.7504
  21051559.3264    1029490.55149    796489.05948                  21051554.4764
        51.0004         43.2504
 04  7  7 17 13 30.0010000  0  8G 3G 9G14G15G18G19G21G22
  22252950.4534     868806.54749    672810.09947                  22252949.4894
        48.7504         36.5004
  23322594.9244     563531.90649    436639.89147                  23322593.6434
        45.0004         28.5004
  21148811.6824    -967229.67249   -748684.88748                  21148809.3644
        52.0004         42.5004
  20255841.2084     165754.47749    128380.60748                  20255839.2994
        52.0004         44.7504
  21965299.0364    2161206.80149   1672670.65747                  21965296.0424
        50.2504         37.0004
  23830241.9394   -1158038.31249   -895512.20547                  23830239.9454
        43.7504         29.2504
  21895130.4514    2508748.05549   1941598.31247                  21895127.5864
        50.0004         37.0004
  21053912.0274    1041855.77749    806124.29248                  21053907.8054
        50.0004         43.0004
 04  7  7 17 13 40.0010000  0  8G 3G 9G14G15G18G19G21G22
  22255219.3864     880729.15649    682100.43547                  22255218.2794
        47.5004         35.7504
  23324189.9084     571913.76649    443171.19747                  23324188.6184
        44.7504         28.5004
  21146767.7664    -977971.42249   -757055.06748                  21146765.6834
        52.2504         43.0004
  20256355.4714     168456.64549    130486.20248                  20256353.2234
        52.2504         44.5004
  21970173.8104    2186823.56649   1692631.76247                  21970171.1224
        50.5004         37.2504
  23827680.9984   -1171496.88749   -905999.39447                  23827678.5984
        44.0004         29.0004
  21901026.3424    2539733.71549   1965742.96747                  21901023.7464
        49.7504         37.2504
  21056263.5404    1054211.47349    815752.11748                  21056259.0604
        50.2504         43.2504
 04  7  7 17 13 50.0010000  0  8G 3G 9G14G15G18G19G21G22
  22257493.3084     892678.94149    691411.94547                  22257492.0814
        47.2504         35.5004
  23325791.5294     580328.53149    449728.15747                  23325790.2144
        44.0004         27.5004
  21144727.6244    -988693.27349   -765409.76448                  21144725.2554
        52.0004         42.0004
  20256872.1274     171171.90249    132601.97448                  20256870.1414
        50.5004         44.0004
  21975044.8444    2212419.94149   1712576.97847                  21975042.1234
        50.5004         36.0004
  23825123.2244   -1184940.34849   -916474.81847                  23825120.3094
        44.2504         29.2504
  21906924.6674    2570726.88349   1989893.45747                  21906921.6454
        49.5004         37.0004
  21058612.0434    1066554.28149    825369.88348                  21058607.7364
        48.7504         42.2504
 04  7  7 17 14  0.0010000  0  8G 3G 9G14G15G18G19G21G22
  22259771.5644     904652.44949    700741.96447                  22259770.3954
        47.5004         35.2504
  23327398.3634     588772.80549    456308.07747                  23327397.0744
        46.0004         29.0004
  21142690.6134    -999398.62949   -773751.58548                  21142688.3464
        52.0004         42.5004
  20257390.7864     173896.86349    134725.31548                  20257388.7444
        51.7504         44.7504
  21979911.0914    2237992.42249   1732503.57647                  21979908.2434
        50.5004         36.5004
  23822566.7144   -1198372.03949   -926941.05547                  23822564.1084
        43.7504         29.5004
  21912822.8464    2601724.14549   2014047.15947                  21912820.4994
        49.5004         37.2504
  21060957.8534    1078880.79749    834974.96048                  21060953.6034
        50.7504         43.0004
 04  7  7 17 14 10.0010000  0  8G 3G 9G14G15G18G19G21G22
  22262055.6414     916654.06649    710093.86347                  22262054.4374
        46.0004         35.0004
  23329011.1994     597250.94149    462914.40947                  23329010.4884
        45.2504         29.2504
  21140657.4914   -1010083.01249   -782077.07148                  21140655.0064
        52.0004         42.5004
  20257911.8734     176636.00449    136859.71548                  20257909.4794
        50.7504         44.5004
  21984773.7214    2263545.37949   1752414.96947                  21984770.6154
        50.7504         36.7504
  23820013.9894   -1211787.55149   -937394.69947                  23820011.4874
        44.5004         29.5004
  21918723.1084    2632729.81649   2038207.40547                  21918720.4594
        50.5004         37.5004
  21063301.2464    1091195.35949    844570.72548                  21063296.6524
        49.2504         43.5004
 04  7  7 17 14 20.0010000  0  8G 3G 9G14G15G18G19G21G22
  22264345.2254     928686.12149    719469.48747                  22264344.3484
        47.5004         35.7504
  23330632.1564     605765.41449    469549.04747                  23330630.7314
        44.7504         29.2504
  21138628.8064   -1020744.05549   -790384.38248                  21138626.3554
        52.2504         43.2504
  20258436.4474     179391.76649    139007.05848                  20258434.2764
        51.7504         45.0004
  21989632.5004    2289081.12949   1772312.93847                  21989630.0304
        50.5004         37.2504
  23817464.8944   -1225184.36749   -947833.74847                  23817461.9774
        43.5004         29.0004
  21924625.5944    2663746.25449   2062376.04147                  21924622.9394
        50.2504         37.7504
  21065643.0234    1103500.28949    854158.97048                  21065638.5724
        51.0004         43.7504
 04  7  7 17 14 30.0010000  0  8G 3G 9G14G15G18G19G21G22
  22266640.0264     940745.91449    728866.72747                  22266638.9504
        47.2504         35.7504
  23332258.0234     614313.59849    476209.95747                  23332256.9174
        45.5004         28.7504
  21136604.0214   -1031384.27049   -798675.45548                  21136601.4584
        52.5004         42.5004
  20258963.4364     182161.53149    141165.31848                  20258961.3634
        50.5004         44.5004
  21994488.3914    2314597.04349   1792195.45947                  21994485.5414
        50.2504         37.0004
  23814917.8374   -1238565.10549   -958260.28247                  23814915.6354
        44.2504         29.0004
  21930529.3754    2694770.90249   2086551.06747                  21930527.0114
        50.2504         37.2504
  21067981.9824    1115792.90649    863737.62948                  21067977.4094
        49.5004         43.2504
 04  7  7 17 14 40.0010000  0  8G 3G 9G14G15G18G19G21G22
  22268940.4754     952833.03149    738285.25447                  22268939.3784
        45.0004         35.5004
  23333891.7654     622895.12149    482896.86447                  23333890.1684
        46.0004         28.2504
  21134583.1934   -1042004.07049   -806950.60948                  21134581.2144
        52.0004         42.5004
  20259493.0474     184944.96549    143334.22548                  20259491.0034
        51.7504         44.7504
  21999340.1504    2340092.60249   1812062.12247                  21999337.3954
        50.0004         36.2504
  23812374.7274   -1251930.12149   -968674.56247                  23812372.2704
        44.5004         29.0004
  21936434.5304    2725803.25449   2110732.10047                  21936431.8094
        50.2504         37.2504
  21070318.7434    1128072.75049    873306.33748                  21070314.7764
        51.0004         43.5004
 04  7  7 17 14 50.0010000  0  8G 3G 9G14G15G18G19G21G22
  22271245.9844     964949.00049    747726.27647                  22271244.6024
        47.0004         35.0004
  23335531.1314     631511.46149    489610.90447                  23335529.7254
        44.5004         28.7504
  21132566.3334   -1052601.89149   -815208.64448                  21132564.1464
        51.7504         42.5004
  20260025.4194     187743.66449    145515.04048                  20260023.4504
        52.0004         44.5004
  22004188.2024    2365569.39149   1831914.15747                  22004185.3444
        50.5004         36.5004
  23809834.9074   -1265277.69549   -979075.23747                  23809832.0394
        44.0004         29.5004
  21942341.4474    2756844.91049   2134920.39447                  21942339.0084
        49.2504         37.2504
  21072653.5404    1140341.44149    882866.35448                  21072648.8434
        50.7504         43.0004
 04  7  7 17 15  0.0010000  0  8G 3G 9G14G15G18G19G21G22
  22273556.0944     977090.37149    757187.08047                  22273555.1104
        47.2504         34.7504
  23337176.4894     640159.30949    496349.46947                  23337175.7064
        44.5004         27.0004
  21130553.2324   -1063181.07049   -823452.15548                  21130551.1124
        52.2504         42.0004
  20260560.6004     190554.23449    147705.08048                  20260558.0394
        53.0004         44.5004
  22009032.0914    2391023.98049   1851748.89647                  22009029.1584
        50.5004         36.2504
  23807297.5304   -1278611.26649   -989465.03847                  23807294.5244
        44.5004         27.0004
  21948249.9484    2787892.33649   2159113.16547                  21948247.7384
        49.5004         36.5004
  21074985.1174    1152595.50449    892414.97748                  21074981.1374
        52.0004         42.5004
 04  7  7 17 15 10.0010000  0  8G 3G 9G14G15G18G19G21G22
  22275872.3024     989261.75049    766671.27147                  22275871.8084
        44.2504         35.2504
  23338829.3654     648843.38349    503116.26347                  23338827.7824
        45.0004         28.2504
  21128544.6504   -1073736.99249   -831677.54548                  21128542.2264
        52.2504         42.7504
  20261098.5444     193381.44549    149908.10248                  20261096.1914
        50.2504         45.2504
  22013872.5024    2416461.09049   1871570.00447                  22013869.5884
        50.2504         36.0004
  23804764.2034   -1291925.98449   -999840.13347                  23804761.4154
        43.7504         28.5004
  21954160.1434    2818950.23849   2183314.10647                  21954157.6294
        49.5004         37.7504
  21077315.6934    1164839.63749    901955.84948                  21077310.9084
        49.0004         43.0004
 04  7  7 17 15 20.0010000  0  8G 3G 9G14G15G18G19G21G22
  22278193.6844    1001459.32449    776175.86847                  22278192.7184
        46.0004         35.7504
  23340487.7154     657559.86749    509908.33747                  23340486.7004
        45.0004         29.0004
  21126539.6164   -1084273.32449   -839887.66348                  21126537.2154
        52.5004         43.0004
  20261638.9884     196221.59449    152121.20148                  20261636.6464
        52.2504         45.0004
  22018709.0964    2441876.87549   1891374.51447                  22018706.1394
        50.2504         36.7504
  23802232.8644   -1305225.62149  -1010203.44047                  23802230.2034
        44.0004         29.0004
  21960071.3954    2850014.77349   2207520.23947                  21960069.0064
        50.0004         37.5004
  21079642.3954    1177069.95749    911485.97448                  21079638.7094
        51.2504         43.2504
 04  7  7 17 15 30.0010000  0  8G 3G 9G14G15G18G19G21G22
  22280520.2364    1013686.01649    785703.15947                  22280518.8574
        48.2504         37.0004
  23342152.8014     666311.83649    516728.05647                  23342152.0144
        42.0004         28.2504
  21124538.5664   -1094787.01249   -848080.14348                  21124536.5894
        52.2504         43.2504
  20262182.4654     199077.68449    154346.72648                  20262180.1274
        52.0004         44.7504
  22023542.1134    2467274.32849   1911164.71247                  22023539.1164
        51.0004         36.7504
  23799705.6614   -1318507.06649  -1020552.61547                  23799702.7974
        44.7504         29.2504
  21965984.7464    2881088.92649   2231733.83047                  21965982.0454
        50.0004         38.0004
  21081967.9644    1189289.39149    921007.60948                  21081964.1174
        51.5004         43.7504
 04  7  7 17 15 40.0010000  0  8G 3G 9G14G15G18G19G21G22
  22282852.5334    1025942.26649    795253.47447                  22282851.6004
        47.2504         36.2504
  23343825.4004     675099.74249    523575.78247                  23343824.3624
        44.2504         28.2504
  21122542.6894   -1105277.67249   -856254.67648                  21122540.1804
        52.0004         43.5004
  20262729.2804     201950.22749    156585.06748                  20262726.9504
        52.5004         44.5004
  22028371.6604    2492653.76249   1930940.89647                  22028368.4324
        50.0004         37.2504
  23797182.2564   -1331769.86349  -1030887.24747                  23797179.1014
        44.7504         29.7504
  21971899.8424    2912173.12549   2255955.25847                  21971897.5384
        49.5004         38.0004
  21084291.1014    1201498.37949    930521.10348                  21084287.0594
        51.7504         43.0004
 04  7  7 17 15 50.0010000  0  8G 3G 9G14G15G18G19G21G22
  22285189.9334    1038224.84449    804824.31747                  22285188.8144
        45.5004         35.7504
  23345503.3504     683920.39849    530449.02147                  23345502.7814
        43.2504         28.5004
  21120549.9524   -1115748.40249   -864413.68548                  21120547.7014
        52.0004         43.2504
  20263278.2094     204836.02349    158833.74948                  20263276.1694
        52.0004         44.7504
  22033197.3724    2518012.00849   1950700.57547                  22033194.7574
        50.2504         36.5004
  23794661.0064   -1345017.09449  -1041209.76847                  23794658.1734
        44.2504         29.2504
  21977816.3114    2943264.16049   2280182.03247                  21977813.8774
        50.0004         37.5004
  21086611.8694    1213693.66449    940023.92748                  21086607.6594
        51.0004         43.2504
 04  7  7 17 16  0.0010000  0  8G 3G 9G14G15G18G19G21G22
  22287532.8384    1050537.18449    814418.35047                  22287531.9664
        47.0004         35.7504
  23347189.1644     692777.30549    537350.47847                  23347188.2544
        43.2504         28.0004
  21118561.8014   -1126195.69149   -872554.42448                  21118559.7044
        52.5004         43.2504
  20263830.4134     207738.69549    161095.56848                  20263828.3234
        51.2504         44.2504
  22038019.2684    2543352.53149   1970446.42147                  22038016.4094
        50.5004         36.5004
  23792143.9054   -1358245.32449  -1051517.45847                  23792140.6854
        45.0004         28.7504
  21983734.7744    2974365.48849   2304416.80847                  21983732.7274
        50.0004         37.7504
  21088930.9244    1225878.75049    949518.78548                  21088926.8154
        49.5004         43.0004
